De Kooy, Netherlands

1:36 AM CEST on March 27, 2017 (GMT +0200)
De Kooy Navy

Weather History for EHKD - November, 2013

Change the Weather History Date:

Thursday, November 7, 2013

  Actual Average Record
Temperature  
Mean Temperature 50 °F -  
Max Temperature 53 °F 48 °F 63 °F (2015)
Min Temperature 48 °F 39 °F 35 °F (2016)
Degree Days  
Heating Degree Days 14    
Moisture  
Dew Point 48 °F    
Average Humidity 83    
Maximum Humidity 94    
Minimum Humidity 57    
Precipitation  
Precipitation 0.00 in 0.11 in - ()
Sea Level Pressure  
Sea Level Pressure 29.56 in    
Wind  
Wind Speed 19 mph ()    
Max Wind Speed 30 mph    
Max Gust Speed 44 mph    
Visibility 5.9 miles    
Events Rain    
Averages and records for this station are not official NWS values.
T = Trace of Precipitation, MM = Missing Value Source: Averaged Metar Reports

Daily Weather History Graph

Daily Weather History Graph

Search for Another Location

Airport or City:

Trip Planner

Search our weather history database for the weather conditions in past years. The results will help you decide how hot, cold, wet, or windy it might be!

Date:

Astronomy

Nov. 07, 2013 Rise Set
Actual Time 7:49 AM CET 4:58 PM CET
Civil Twilight 7:12 AM CET 5:36 PM CET
Nautical Twilight 6:30 AM CET 6:17 PM CET
Astronomical Twilight 5:50 AM CET 6:57 PM CET
Moon 11:54 AM CET (11/7) 8:44 PM CET (11/7)
Length of Visible Light 10h 23m
Length of Day
9h 09m
Waxing Crescent, 20% of the Moon is Illuminated
Nov 7
Waxing Crescent
Nov 10
First Quarter
Nov 17
Full
Nov 25
Last Quarter
Dec 3
New

Hourly Weather History & Observations

Time (CET) Temp. Dew Point Humidity Pressure Visibility Wind Dir Wind Speed Gust Speed Precip Events Conditions
12:10 AM 57.2 °F 55.4 °F 94% 29.39 in 5.0 mi SW 26.5 mph - N/A   Light Drizzle
12:18 AM 57.2 °F 55.4 °F 94% 29.39 in 5.0 mi SW 28.8 mph 43.7 mph N/A   Drizzle
12:25 AM 57.2 °F 55.4 °F 94% 29.39 in 5.6 mi SW 29.9 mph 43.7 mph N/A   Light Drizzle
12:27 AM 57.2 °F 55.4 °F 94% 29.39 in 5.6 mi SW 29.9 mph 41.4 mph N/A   Light Drizzle
12:31 AM 57.2 °F 55.4 °F 94% 29.39 in 5.6 mi SW 27.6 mph 40.3 mph N/A   Light Drizzle
12:46 AM 57.2 °F 55.4 °F 94% 29.39 in 5.6 mi SW 27.6 mph - N/A   Overcast
12:55 AM 57.2 °F 55.4 °F 94% 29.39 in 5.6 mi SW 27.6 mph - N/A   Overcast
12:57 AM 57.2 °F 55.4 °F 94% 29.39 in 3.7 mi SW 26.5 mph - N/A   Light Drizzle
1:00 AM 58 °F 55 °F 86% 29.39 in 5 mi SW 26.8 mph - - Rain Light Drizzle
1:08 AM 57.2 °F 55.4 °F 94% 29.39 in 5.0 mi SW 28.8 mph - N/A   Light Drizzle
1:25 AM 57.2 °F 55.4 °F 94% 29.39 in 5.0 mi SW 25.3 mph 36.8 mph N/A   Overcast
1:27 AM 57.2 °F 55.4 °F 94% 29.39 in 4.3 mi SW 26.5 mph 40.3 mph N/A   Light Drizzle
1:46 AM 57.2 °F 55.4 °F 94% 29.39 in 5.0 mi SW 26.5 mph - N/A   Overcast
1:55 AM 57.2 °F 55.4 °F 94% 29.39 in 5.0 mi SW 27.6 mph 40.3 mph N/A   Overcast
2:06 AM 57.2 °F 55.4 °F 94% 29.39 in 5.6 mi SW 28.8 mph - N/A   Overcast
2:11 AM 57.2 °F 55.4 °F 94% 29.39 in 5.6 mi SW 28.8 mph - N/A   Overcast
2:16 AM 57.2 °F 55.4 °F 94% 29.39 in 5.6 mi SW 29.9 mph 42.6 mph N/A   Overcast
2:25 AM 57.2 °F 55.4 °F 94% 29.39 in 5.6 mi SW 28.8 mph 41.4 mph N/A   Overcast
2:30 AM 57.2 °F 55.4 °F 94% 29.39 in 5.6 mi SW 29.9 mph 41.4 mph N/A   Overcast
2:34 AM 57.2 °F 55.4 °F 94% 29.39 in 4.3 mi SW 27.6 mph 39.1 mph N/A   Overcast
2:38 AM 57.2 °F 55.4 °F 94% 29.39 in 3.7 mi WSW 27.6 mph 39.1 mph N/A   Overcast
2:45 AM 57.2 °F 55.4 °F 94% 29.42 in - WSW 28.8 mph - N/A   Overcast
2:55 AM 57.2 °F 55.4 °F 94% 29.42 in - WSW 27.6 mph - N/A   Overcast
2:57 AM 57.2 °F 55.4 °F 94% 29.42 in - WSW 27.6 mph - N/A Rain Light Rain
3:05 AM 57.2 °F 55.4 °F 94% 29.42 in - WSW 25.3 mph - N/A   Drizzle
3:09 AM 57.2 °F 55.4 °F 94% 29.42 in - WSW 26.5 mph - N/A   Drizzle
3:14 AM 57.2 °F 55.4 °F 94% 29.42 in 3.1 mi WSW 28.8 mph 40.3 mph N/A   Drizzle
3:25 AM 57.2 °F 55.4 °F 94% 29.42 in 5.6 mi WSW 28.8 mph 40.3 mph N/A   Mostly Cloudy
3:28 AM 57.2 °F 55.4 °F 94% 29.42 in 5.6 mi WSW 26.5 mph - N/A   Mostly Cloudy
3:38 AM 57.2 °F 55.4 °F 94% 29.42 in 4.3 mi WSW 26.5 mph - N/A   Mostly Cloudy
3:42 AM 57.2 °F 55.4 °F 94% 29.42 in 5.0 mi WSW 25.3 mph - N/A   Mostly Cloudy
3:55 AM 55.4 °F 53.6 °F 94% 29.44 in 6.2 mi West 19.6 mph 32.2 mph N/A   Overcast
3:57 AM 55.4 °F 53.6 °F 94% 29.44 in 6.2 mi West 18.4 mph - N/A   Mostly Cloudy
4:00 AM 55 °F 53 °F 90% 29.45 in 6 mi West 17.9 mph - - Rain Drizzle
4:25 AM 53.6 °F 51.8 °F 94% 29.44 in 6.2 mi NW 15.0 mph - N/A   Mostly Cloudy
4:27 AM 53.6 °F 50.0 °F 88% 29.44 in 6.2 mi NW 13.8 mph - N/A   Overcast
4:31 AM 51.8 °F 50.0 °F 94% 29.44 in 6.2 mi NW 12.7 mph - N/A   Mostly Cloudy
4:55 AM 51.8 °F 50.0 °F 94% 29.47 in 6.2 mi NW 8.1 mph - N/A   Mostly Cloudy
5:25 AM 51.8 °F 50.0 °F 94% 29.50 in 6.2 mi WNW 8.1 mph - N/A   Overcast
5:55 AM 51.8 °F 48.2 °F 88% 29.53 in 6.2 mi WNW 10.4 mph - N/A   Mostly Cloudy
6:09 AM 51.8 °F 48.2 °F 88% 29.53 in 6.2 mi WNW 10.4 mph - N/A   Overcast
6:14 AM 51.8 °F 48.2 °F 88% 29.53 in 6.2 mi WNW 11.5 mph - N/A   Mostly Cloudy
6:25 AM 51.8 °F 48.2 °F 88% 29.53 in 6.2 mi WNW 11.5 mph - N/A   Mostly Cloudy
6:27 AM 51.8 °F 46.4 °F 82% 29.53 in 6.2 mi WNW 11.5 mph - N/A   Mostly Cloudy
6:35 AM 51.8 °F 46.4 °F 82% 29.56 in 6.2 mi WNW 11.5 mph - N/A   Overcast
6:37 AM 51.8 °F 48.2 °F 88% 29.56 in 6.2 mi West 12.7 mph - N/A   Overcast
6:46 AM 51.8 °F 46.4 °F 82% 29.56 in 6.2 mi WNW 12.7 mph - N/A   Overcast
6:55 AM 51.8 °F 46.4 °F 82% 29.56 in 6.2 mi WNW 13.8 mph - N/A   Overcast
7:00 AM 51.8 °F 46.4 °F 82% 29.56 in 6.2 mi WNW 12.7 mph - N/A   Overcast
7:11 AM 51.8 °F 46.4 °F 82% 29.56 in 6.2 mi West 12.7 mph - N/A   Overcast
7:25 AM 51.8 °F 48.2 °F 88% 29.56 in 6.2 mi WNW 10.4 mph - N/A   Overcast
7:34 AM 51.8 °F 48.2 °F 88% 29.59 in 6.2 mi West 10.4 mph - N/A   Overcast
7:38 AM 51.8 °F 48.2 °F 88% 29.59 in 6.2 mi West 11.5 mph - N/A   Mostly Cloudy
7:46 AM 51.8 °F 48.2 °F 88% 29.59 in 6.2 mi West 12.7 mph - N/A   Overcast
7:55 AM 51.8 °F 46.4 °F 82% 29.59 in 6.2 mi West 13.8 mph - N/A   Scattered Clouds
8:25 AM 51.8 °F 46.4 °F 82% 29.59 in 6.2 mi West 12.7 mph - N/A   Unknown
8:46 AM 51.8 °F 46.4 °F 82% 29.62 in 6.2 mi West 12.7 mph - N/A   Mostly Cloudy
8:55 AM 51.8 °F 46.4 °F 82% 29.62 in 6.2 mi West 12.7 mph - N/A   Mostly Cloudy
8:57 AM 51.8 °F 46.4 °F 82% 29.62 in 6.2 mi West 12.7 mph - N/A   Mostly Cloudy
9:01 AM 51.8 °F 46.4 °F 82% 29.62 in 6.2 mi West 13.8 mph - N/A   Mostly Cloudy
9:06 AM 51.8 °F 46.4 °F 82% 29.62 in 6.2 mi West 13.8 mph - N/A   Mostly Cloudy
9:16 AM 51.8 °F 46.4 °F 82% 29.62 in 6.2 mi West 15.0 mph - N/A   Mostly Cloudy
9:25 AM 51.8 °F 46.4 °F 82% 29.62 in 6.2 mi West 15.0 mph - N/A   Overcast
9:44 AM 51.8 °F 46.4 °F 82% 29.62 in 6.2 mi WNW 16.1 mph - N/A   Mostly Cloudy
9:48 AM 51.8 °F 44.6 °F 76% 29.62 in 6.2 mi WNW 16.1 mph - N/A   Mostly Cloudy
9:55 AM 51.8 °F 44.6 °F 76% 29.65 in 6.2 mi WNW 15.0 mph - N/A   Mostly Cloudy
9:57 AM 51.8 °F 44.6 °F 76% 29.65 in 6.2 mi WNW 13.8 mph - N/A   Partly Cloudy
10:00 AM 52 °F 44 °F 66% 29.66 in 22 mi West 13.4 mph - -   Partly Cloudy
10:25 AM 51.8 °F 42.8 °F 71% 29.65 in 6.2 mi West 13.8 mph - N/A   Scattered Clouds
10:55 AM 53.6 °F 44.6 °F 72% 29.68 in 6.2 mi West 15.0 mph - N/A   Partly Cloudy
11:05 AM 53.6 °F 44.6 °F 72% 29.68 in 6.2 mi West 13.8 mph - N/A   Mostly Cloudy
11:25 AM 53.6 °F 44.6 °F 72% 29.68 in 6.2 mi West 15.0 mph - N/A   Partly Cloudy
11:55 AM 51.8 °F 42.8 °F 71% 29.68 in 6.2 mi West 12.7 mph - N/A   Partly Cloudy
12:25 PM 51.8 °F 42.8 °F 71% 29.68 in 6.2 mi West 12.7 mph - N/A   Partly Cloudy
12:55 PM 53.6 °F 42.8 °F 67% 29.71 in 6.2 mi West 13.8 mph - N/A   Unknown
1:00 PM 53 °F 42 °F 57% 29.71 in 22 mi West 15.7 mph - -   Partly Cloudy
1:25 PM 53.6 °F 42.8 °F 67% 29.71 in 6.2 mi West 12.7 mph - N/A   Unknown
1:55 PM 51.8 °F 42.8 °F 71% 29.71 in 6.2 mi West 13.8 mph - N/A   Partly Cloudy
2:25 PM 51.8 °F 42.8 °F 71% 29.71 in 6.2 mi West 11.5 mph - N/A   Partly Cloudy
2:55 PM 53.6 °F 44.6 °F 72% 29.71 in 6.2 mi West 11.5 mph - N/A   Partly Cloudy
3:25 PM 51.8 °F 42.8 °F 71% 29.71 in 6.2 mi WSW 13.8 mph - N/A   Mostly Cloudy
3:36 PM 51.8 °F 42.8 °F 71% 29.71 in 6.2 mi WSW 12.7 mph - N/A   Scattered Clouds
3:55 PM 51.8 °F 42.8 °F 71% 29.71 in 6.2 mi WSW 12.7 mph - N/A   Mostly Cloudy
4:00 PM 51 °F 43 °F 66% 29.73 in 25 mi WSW 11.2 mph - -   Scattered Clouds
4:25 PM 50.0 °F 42.8 °F 76% 29.71 in 6.2 mi WSW 11.5 mph - N/A   Overcast
4:55 PM 50.0 °F 41.0 °F 71% 29.71 in 6.2 mi West 11.5 mph - N/A   Overcast
5:25 PM 50.0 °F 41.0 °F 71% 29.71 in 6.2 mi West 10.4 mph - N/A   Overcast
5:55 PM 50.0 °F 41.0 °F 71% 29.71 in 6.2 mi West 9.2 mph - N/A   Mostly Cloudy
6:25 PM 48.2 °F 41.0 °F 76% 29.71 in 6.2 mi WSW 6.9 mph - N/A   Partly Cloudy
6:55 PM 50.0 °F 42.8 °F 76% 29.71 in 6.2 mi WSW 8.1 mph - N/A   Overcast
7:00 PM 50 °F 42 °F 67% 29.73 in 25 mi WSW 6.7 mph - -   Partly Cloudy
7:25 PM 50.0 °F 42.8 °F 76% 29.71 in 6.2 mi WSW 8.1 mph - N/A   Overcast
7:55 PM 50.0 °F 41.0 °F 71% 29.74 in 6.2 mi WSW 10.4 mph - N/A   Overcast
8:25 PM 50.0 °F 41.0 °F 71% 29.74 in 6.2 mi WSW 10.4 mph - N/A   Overcast
8:45 PM 50.0 °F 41.0 °F 71% 29.74 in 6.2 mi West 11.5 mph - N/A   Overcast
8:55 PM 50.0 °F 41.0 °F 71% 29.74 in 6.2 mi WSW 11.5 mph - N/A   Overcast
9:25 PM 50.0 °F 41.0 °F 71% 29.74 in 6.2 mi West 10.4 mph - N/A   Overcast
9:55 PM 50.0 °F 41.0 °F 71% 29.74 in 6.2 mi WSW 9.2 mph - N/A   Overcast
10:00 PM 50 °F 40 °F 60% 29.75 in 28 mi WSW 8.9 mph - -   Overcast
10:25 PM 50.0 °F 41.0 °F 71% 29.74 in 6.2 mi WSW 10.4 mph - N/A   Mostly Cloudy
10:55 PM 50.0 °F 41.0 °F 71% 29.74 in 6.2 mi WSW 9.2 mph - N/A   Overcast
11:25 PM 50.0 °F 41.0 °F 71% 29.74 in 6.2 mi WSW 8.1 mph - N/A   Overcast
11:55 PM 50.0 °F 41.0 °F 71% 29.74 in 6.2 mi WSW 8.1 mph - N/A   Overcast